Weather History for Lafayette, LA

Change the Weather History Date:

Friday, April 18, 2014

  Actual Average Record
Temperature  
Mean Temperature 69 °F 70 °F  
Max Temperature 78 °F 80 °F 90 °F (2006)
Min Temperature 60 °F 59 °F 36 °F (1921)
Degree Days  
Heating Degree Days 0 1  
Month to date heating degree days 54 33  
Since 1 July heating degree days 1949 1413  
Cooling Degree Days 4 5  
Month to date cooling degree days 47 78  
Year to date cooling degree days 85 173  
Growing Degree Days 18 (Base 50)    
Moisture  
Dew Point 59 °F    
Average Humidity 76    
Maximum Humidity 97    
Minimum Humidity 54    
Precipitation  
Precipitation 0.00 in 0.15 in 4.58 in (1918)
Month to date precipitation 1.89 2.26  
Year to date precipitation 11.99 16.17  
Snow  
Snow 0.00 in 0.00 in 0.00 in ()
Month to date snowfall 0.0 0.0  
Since 1 July snowfall 0.8 T  
Snow Depth 0.00 in    
Sea Level Pressure  
Sea Level Pressure 30.11 in    
Wind  
Wind Speed 7 mph (NNE)    
Max Wind Speed 18 mph    
Max Gust Speed 22 mph    
Visibility 8 miles    
Events      
T = Trace of Precipitation, MM = Missing Value Source: NWS Daily Summary

Daily Weather History Graph

Daily Weather History Graph

Search for Another Location

Airport:

Trip Planner

Search our weather history database for the weather conditions in past years. The results will help you decide how hot, cold, wet, or windy it might be!

Date:

Astronomy

Apr. 18, 2014 Rise Set
Actual Time 6:37 AM CDT 7:37 PM CDT
Civil Twilight 6:12 AM CDT 8:02 PM CDT
Nautical Twilight 5:43 AM CDT 8:31 PM CDT
Astronomical Twilight 5:13 AM CDT 9:01 PM CDT
Moon 11:13 PM CDT (4/18) 9:09 AM CDT (4/18)
Length of Visible Light 13h 49m
Length of Day
12h 59m
Waning Gibbous, 87% of the Moon is Illuminated
Apr 18
Waning Gibbous
Apr 22
Last Quarter
Apr 29
New
May 6
First Quarter
May 14
Full

Hourly Weather History & Observations

Time (CDT) Temp. Dew Point Humidity Pressure Visibility Wind Dir Wind Speed Gust Speed Precip Events Conditions
12:53 AM 61.0 °F 57.9 °F 90% 30.14 in 9.0 mi North 5.8 mph - N/A   Overcast
1:53 AM 61.0 °F 57.9 °F 90% 30.13 in 8.0 mi NNE 5.8 mph - N/A   Overcast
2:06 AM 61.0 °F 59.0 °F 93% 30.12 in 5.0 mi NNE 4.6 mph - N/A   Overcast
2:50 AM 60.8 °F 59.0 °F 94% 30.11 in 4.0 mi North 5.8 mph - N/A   Overcast
2:53 AM 61.0 °F 59.0 °F 93% 30.11 in 4.0 mi North 5.8 mph - N/A   Overcast
3:11 AM 61.0 °F 59.0 °F 93% 30.10 in 4.0 mi North 5.8 mph - N/A   Overcast
3:38 AM 60.1 °F 59.0 °F 96% 30.09 in 4.0 mi North 5.8 mph - N/A   Overcast
3:49 AM 60.8 °F 59.0 °F 94% 30.09 in 5.0 mi North 5.8 mph - N/A   Overcast
3:53 AM 60.1 °F 59.0 °F 96% 30.09 in 5.0 mi North 4.6 mph - N/A   Overcast
4:53 AM 61.0 °F 57.9 °F 90% 30.09 in 8.0 mi North 4.6 mph - N/A   Overcast
5:26 AM 60.1 °F 57.9 °F 93% 30.09 in 8.0 mi NE 3.5 mph - N/A   Overcast
5:44 AM 60.1 °F 57.9 °F 93% 30.10 in 8.0 mi NE 3.5 mph - N/A   Overcast
5:53 AM 60.1 °F 57.9 °F 93% 30.11 in 9.0 mi NE 4.6 mph - N/A   Overcast
6:53 AM 60.1 °F 57.0 °F 90% 30.13 in 8.0 mi North 3.5 mph - N/A   Overcast
7:53 AM 62.1 °F 57.9 °F 86% 30.14 in 9.0 mi Calm Calm - N/A   Scattered Clouds
8:53 AM 64.9 °F 57.9 °F 78% 30.13 in 10.0 mi ENE 4.6 mph - N/A   Clear
9:31 AM 66.9 °F 59.0 °F 76% 30.14 in 10.0 mi NNE 5.8 mph - N/A   Mostly Cloudy
9:53 AM 64.9 °F 57.9 °F 78% 30.14 in 10.0 mi NNW 9.2 mph - N/A   Mostly Cloudy
10:29 AM 66.9 °F 59.0 °F 76% 30.14 in 10.0 mi NNW 8.1 mph - N/A   Mostly Cloudy
10:53 AM 69.1 °F 59.0 °F 70% 30.14 in 10.0 mi North 8.1 mph - N/A   Mostly Cloudy
11:53 AM 71.1 °F 59.0 °F 66% 30.14 in 10.0 mi North 12.7 mph 17.3 mph N/A   Mostly Cloudy
12:53 PM 73.9 °F 59.0 °F 59% 30.11 in 10.0 mi NE 11.5 mph - N/A   Scattered Clouds
1:53 PM 75.9 °F 59.0 °F 56% 30.09 in 10.0 mi NNE 8.1 mph - N/A   Scattered Clouds
2:53 PM 75.0 °F 57.9 °F 55% 30.08 in 10.0 mi NNE 10.4 mph - N/A   Overcast
3:53 PM 71.6 °F 60.8 °F 69% 30.08 in 10.0 mi North 17.3 mph - N/A   Overcast
4:53 PM 73.0 °F 60.1 °F 64% 30.07 in 10.0 mi North 12.7 mph - N/A   Clear
5:53 PM 72.0 °F 60.1 °F 66% 30.08 in 10.0 mi North 10.4 mph - N/A   Scattered Clouds
6:53 PM 72.0 °F 59.0 °F 64% 30.07 in 10.0 mi NNE 5.8 mph - N/A   Clear
7:53 PM 69.1 °F 59.0 °F 70% 30.08 in 10.0 mi North 6.9 mph - N/A   Clear
8:53 PM 66.9 °F 57.9 °F 73% 30.11 in 10.0 mi NE 4.6 mph - N/A   Mostly Cloudy
9:53 PM 66.2 °F 59.0 °F 78% 30.14 in 10.0 mi NNE 3.5 mph - N/A   Scattered Clouds
10:53 PM 64.0 °F 57.9 °F 80% 30.14 in 10.0 mi NNE 4.6 mph - N/A   Partly Cloudy
11:53 PM 62.1 °F 57.9 °F 86% 30.13 in 10.0 mi NNE 4.6 mph - N/A   Clear